Погода в Ленинском

Россия / Санкт-Петербург и Ленинградская область     60°13′10″N   29°51′13″E
темп.,
°C
ветер,
м/с
пор.,
м/с
влажн.,
%
обл.,
%
осадки,
мм/ч
давл.,
гПа
погр.,
м
25 февраля, чт
чт2500:00+2зюз615100100 1.6 1009452
03:00+2з51299100 1.6 1009375
06:00+2з41097100 0.0 1009391
09:00+1з4997100 0.1 1010318
12:00+2зюз4997100 0.0 1010433
15:00+2з3998100 0.1 1010337
18:00+2зюз31099100 0.1 1008278
21:00+1з3899100 0.9 1007254
26 февраля, пт
пт2600:00+1зюз3899100 1.6 1004239
03:00+2зюз51398100 4.9 1001402
06:00+3зюз71497100 3.1 998505
09:00+2з61395100 5.9 997571
12:00+3зсз61288100 0.4 999702
15:00+3зсз51187100 0.4 1001709
18:00+1з499696 0.0 1002309
21:00−1зюз359897 0.0 1003185
27 февраля, сб
сб2700:00+1сз2598100 0.1 1004203
03:00+1ссз3796100 0.1 1006317
06:000ссз3892100 0.0 1008450
09:000ссз4992100 0.1 1011554
12:00+1ссз4891100 0.0 1013474
15:00+1ссз588898 0.1 1016637
18:00+1ссз4884100 0.0 1018572
21:00−1ссз4886100 0.1 1020558
28 февраля, вс
вс2800:00−3сз379181 0.0 1021312
03:00−4зсз259456 0.0 1022182
06:00−4з259399 0.0 1021192
09:00−3зюз369499 0.2 1020250
12:00−1зюз4794100 1.9 1018379
15:00+1зсз269895 2.0 1019263
18:00+1з269796 0.1 1018210
21:00−1зсз269698 0.1 1019142
1 марта, пн
пн100:000сз1298100 0.1 102022
03:00+1сз2298100 0.2 102167
06:00−1з229867 0.0 102122
09:00−1зюз489865 0.0 1020265
12:00+1з5892100 0.0 1020406
15:00+2з61288100 0.0 1019607
18:00+2з5129094 0.0 1018470
21:00+2з5128996 0.0 1018435